Domov               UVHVVR             MKGP            O straneh              
ZDRAVSTVENO VARSTVO RASTLIN
  MREŽA AGROMET. POSTAJ
 ► PROGNOSTIČNA OBVESTILA
AGROMETEOROLOŠKI PODATKI -
ARSO
OBVLADOVANJE TVEGANJ ZARADI
NEUGODNIH VREMENSKIH RAZMER
  ► NARAVNE NESREČE
  ► SUŠA/MOČA
  ► NAMAKANJE
  ► ŽLED (gozdarstvo)
KARTOGRAFSKI PRIKAZI
SPLETNE POVEZAVE
PROJEKTI IN PUBLIKACIJE

AGROMETEOROLOŠKA MREŽA: VREMENSKE POSTAJE IN FENOLOŠKA OPAZOVANJA

Pregled podatkov za lokacijo Selo, meteorološka postaja 37838

Pregled senzorjev na lokaciji

ID Ime Zadnja
vrednost
Datum
zadnje
spremembe
Tip
senzorja
4044 Omočenost lista (U) 0 U 19.10.2017 16:15 A730WET
4045 Padavine 0.2 mm (mm) 0 mm 19.10.2017 16:15 Rain-O-Matic
4046 Temperatura 2 m ( °C) 16,73 °C 19.10.2017 16:15 50YA
4047 Relativna vlaga 2 m (% RH) 66,32 % RH 19.10.2017 16:15 50YA

Pregled podatkov zadnjih 24 ur

Zap.
št.
Datum in čas Selo
Omočenost
lista
Padavine
0.2
mm
Relativna
vlaga
2
m
Temperatura
2
m
0 19.10.2017 15:30 0 0 66,32 16,73
1 19.10.2017 15:00 0 0 67,89 16,58
2 19.10.2017 14:30 0 0 71,09 15,89
3 19.10.2017 14:00 0 0 71,54 15,65
4 19.10.2017 13:30 0 0 73,63 14,98
5 19.10.2017 13:00 0 0 78,38 13,94
6 19.10.2017 12:30 0 0 84,08 12,81
7 19.10.2017 12:00 0 0 91,43 11,88
8 19.10.2017 11:30 0 0 96,07 11,36
9 19.10.2017 11:00 0 0 99,93 10,85
10 19.10.2017 10:30 0 0 99,93 10,6
11 19.10.2017 10:00 0,5 0 99,93 10,33
12 19.10.2017 09:30 1 0 99,93 10,16
13 19.10.2017 09:00 5,5 0 99,93 9,89
14 19.10.2017 08:30 10 0 99,93 9,49
15 19.10.2017 08:00 10 0 99,93 9,26
16 19.10.2017 07:30 10 0 99,93 9,04
17 19.10.2017 07:00 10 0 99,93 9,06
18 19.10.2017 06:30 10 0 99,93 9,44
19 19.10.2017 06:00 7,5 0 96,28 9,63
20 19.10.2017 05:30 4 0 88,63 9,77
21 19.10.2017 05:00 5 0 80,07 10,59
22 19.10.2017 04:30 4 0 78,56 10,35
23 19.10.2017 04:00 3 0 78,5 10,02
24 19.10.2017 03:30 1 0 74,99 10,49
25 19.10.2017 03:00 1 0 77,17 10,26
26 19.10.2017 02:30 0 0 72,63 11,21
27 19.10.2017 02:00 0 0 67,89 12,19
28 19.10.2017 01:30 0 0 66,59 12,58
29 19.10.2017 01:00 0 0 67,96 12,38
30 19.10.2017 00:30 0 0 66,25 12,72
31 19.10.2017 00:00 0 0 63,71 13,16
32 18.10.2017 23:30 0 0 63,15 13,41
33 18.10.2017 23:00 0 0 60,81 13,92
34 18.10.2017 22:30 0 0 62 14,11
35 18.10.2017 22:00 0 0 59,85 14,92
36 18.10.2017 21:30 0 0 60,2 14,95
37 18.10.2017 21:00 0 0 66,64 14,41
38 18.10.2017 20:30 0 0 69,3 14,41
39 18.10.2017 20:00 0 0 70,33 14,38
40 18.10.2017 19:30 0 0 68,45 14,82
41 18.10.2017 19:00 0 0 63,32 15,73
42 18.10.2017 18:30 0 0 55,56 16,65
43 18.10.2017 18:00 0 0 53,06 17,12
44 18.10.2017 17:30 0 0 51,4 17,88
45 18.10.2017 17:00 0 0 52,48 18,63
46 18.10.2017 16:30 0 0 46,4 20,15
© 2011 Ministrstvo za kmetijstvo, gozdarstvo in prehrano. Vse pravice pridržane.